Regional Weather Roundup
Issued by NWS Portland, ME

Home | Current Version | Previous Version | Text Only | Print | Product List | Glossary On
Versions: 1 2 3 4 5 6 7 8 9 10 11 12 13 14 15 16 17 18 19 20 21 22 23 24 25 26 27 28 29 30 31 32 33 34 35 36 37 38 39 40 41 42 43 44 45 46 47 48 49 50
000
ASUS41 KGYX 210510
RWRGYX
WEATHER ROUNDUP FOR MAINE AND NEW HAMPSHIRE
NATIONAL WEATHER SERVICE GRAY ME
100 AM EDT WED APR 21 2021

MEZ002-005-006-010-012-015-018-020-021-024-026-027-029-210600-
MAINE

CITY           SKY/WX    TMP DP  RH WIND       PRES   REMARKS
PORTLAND       CLOUDY    50  40  68 SW6       29.91R
SANFORD        PTCLDY    44  39  82 CALM      29.90S
BAR HARBOR     MOCLDY    43  41  93 CALM      29.92R
WISCASSET      LGT RAIN  46  41  82 CALM      29.90F
ROCKLAND       CLOUDY    48  38  68 N5        29.90F
FRYEBURG       RAIN      45  34  65 CALM      29.88F
LEWISTONAUBURN LGT RAIN  42  38  85 SE3       29.90R
AUGUSTA        MOCLDY    47  33  58 CALM      29.90R
WATERVILLE     CLEAR     45  32  60 N3        29.87R
BANGOR         MOCLDY    42  36  79 CALM      29.90R
GREENVILLE       N/A     40  25  55 N8        29.83F
MILLINOCKET    PTCLDY    42  30  62 NW8       29.89S
HOULTON        MOCLDY    42  26  53 W6        29.86R
PRESQUE ISLE   CLOUDY    30  29  96 SW3       29.87R
FRENCHVILLE    MOCLDY    38  26  62 W5        29.80S
CARIBOU        PTCLDY    38  31  76 SW3       29.84R
$$

NHZ002-005-008-009-011-012-014-210600-
NEW HAMPSHIRE

CITY           SKY/WX    TMP DP  RH WIND       PRES   REMARKS
PORTSMOUTH     PTCLDY    51  31  46 SW3       29.92R
ROCHESTER      CLEAR     47  35  63 CALM      29.90R
NASHUA         PTCLDY    46  40  79 NW6       29.92S
MANCHESTER     MOCLDY    51  36  56 NW3       29.90R
CONCORD        MOCLDY    49  31  49 NW5       29.91R
LACONIA        LGT RAIN  44  42  93 CALM      29.91R
PLYMOUTH       CLOUDY    41  35  79 CALM      29.90F
BERLIN         CLEAR     37  27  67 S3        29.90R
WHITEFIELD     CLEAR     33  29  85 S3        29.91R
JAFFREY        CLOUDY    42  38  85 CALM      29.90S
KEENE          MOCLDY    41  38  89 CALM      29.92R
LEBANON        LGT RAIN  42  38  85 NE5       29.92S
MT WASHINGTON  MOCLDY    23  21  93 W51         N/A  WCI   1
$$

VTZ005-007-008-210600-
VERMONT

CITY           SKY/WX    TMP DP  RH WIND       PRES   REMARKS
ST JOHNSBURY     N/A     38  29  70 MISG      29.91R
MONTPELIER     CLEAR     37  27  67 W5        29.95R
BURLINGTON     CLOUDY    44  28  53 NW7       29.94R
$$

MAZ007-012-024-CTZ003-RIZ002-NYZ038-NYZ072-210600-
SOUTHERN NEW ENGLAND AND NY

CITY           SKY/WX    TMP DP  RH WIND       PRES   REMARKS
BOSTON         CLEAR     57  37  47 N7        29.91S
WORCESTER      CLEAR     48  36  63 W3        29.90F
NANTUCKET      CLEAR     50  48  93 SW15      29.96F
PROVIDENCE     CLEAR     55  40  56 SW7       29.92F
HARTFORD       PTCLDY    49  37  63 N3        29.90F
ALBANY         CLOUDY    39  36  89 CALM      29.94F
NEW YORK CITY  PTCLDY    60  39  45 S9        29.86F
$$

ANZ081-ANZ082-ANZ150-NHZ014-MEZ023>029-210600-
COASTAL MARINE OBSERVATIONS

STATION/POSITION TIME  TEMP    WIND        PRES    WAVE
                       AIR SEA DIR/SP/G            HT/PER
                 (UTC) (F)     (DEG/KT/KT) (MB)    (FT/S)
MOUNT DESERT ROC 0500          220/  6/  6 1012.8R
ISLE OF SHOALS   0400   55     280/  6/  6 1012.2F
JEFFREYS LEDGE   0456      45                N/A     2/ 5
CASHES LEDGE BUO 0450   46 44              1013.3F   3/ 6
$$

.............KEY..............
   WCI - WIND CHILL
   TC  - TEMPERATURE IN CELSIUS
   VSB - VISIBILITY IN MILES
   HX  - HEAT INDEX
   FAIR- INDICATES FEW OR NO CLOUDS BELOW 12,000 FT, WITH NO
         SIGNIFICANT WEATHER AND/OR OBSTRUCTIONS TO VISIBILITY.





USA.gov is the U.S. government's official web portal to all federal, state and local government web resources and services.